"Period start","avg(HW err(1)/warn(2) (#))","avg(Visibility (m))","avg(Weather code (#))","avg(Precip intensity (mm/h))","min(HW err(1)/warn(2) (#))","max(HW err(1)/warn(2) (#))","std(HW err(1)/warn(2) (#))","med(HW err(1)/warn(2) (#))","min(Visibility (m))","max(Visibility (m))","std(Visibility (m))","med(Visibility (m))","min(Weather code (#))","max(Weather code (#))","std(Weather code (#))","med(Weather code (#))","min(Precip intensity (mm/h))","max(Precip intensity (mm/h))","std(Precip intensity (mm/h))","med(Precip intensity (mm/h))"
2013-09-26 00:00:00,2,44108,0,0.00,2,2,0,2,31630,50000,5019,44996,0,0,0,0,0.00,0.00,0.00,0.00
2013-09-26 00:10:00,2,35059,0,0.00,2,2,0,2,18232,47668,9205,34652,0,0,0,0,0.00,0.00,0.00,0.00
2013-09-26 00:20:00,2,9490,23,0.16,2,2,0,2,1349,17241,5425,9656,0,71,25,20,0.00,1.50,0.45,0.00
2013-09-26 00:30:00,2,5439,71,1.93,2,2,0,2,891,28766,8052,2302,71,71,0,71,0.00,8.70,2.85,0.35
2013-09-26 00:40:00,2,5142,48,1.24,2,2,0,2,746,14689,3776,5396,0,71,26,56,0.00,5.75,2.05,0.08
2013-09-26 00:50:00,2,14439,50,1.23,2,2,0,2,672,42106,13822,11988,0,71,33,71,0.00,9.85,2.90,0.12
2013-09-26 01:00:00,2,41614,0,0.00,2,2,0,2,34893,50000,4172,41337,0,0,0,0,0.00,0.00,0.00,0.00
2013-09-26 01:10:00,2,46751,0,0.00,2,2,0,2,38191,50000,3976,48862,0,0,0,0,0.00,0.00,0.00,0.00
2013-09-26 01:20:00,2,24787,0,0.00,2,2,0,2,4063,48282,15116,22726,0,0,0,0,0.00,0.00,0.00,0.00
2013-09-26 01:30:00,2,45314,0,0.00,2,2,0,2,36353,50000,4504,46336,0,0,0,0,0.00,0.00,0.00,0.00
2013-09-26 01:40:00,2,30771,0,0.00,2,2,0,2,7233,50000,15417,28495,0,0,0,0,0.00,0.00,0.00,0.00
2013-09-26 01:50:00,2,48377,0,0.00,2,2,0,2,43867,50000,2081,49718,0,0,0,0,0.00,0.00,0.00,0.00
2013-09-26 02:00:00,2,26107,12,0.04,2,2,0,2,2171,50000,16929,26327,0,41,19,0,0.00,0.35,0.10,0.00
2013-09-26 02:10:00,2,30569,20,0.00,2,2,0,2,5546,50000,16503,37703,0,41,20,20,0.00,0.00,0.00,0.00
2013-09-26 02:20:00,2,18163,26,0.92,2,2,0,2,1162,50000,21264,4185,0,71,28,20,0.00,3.75,1.33,0.12
2013-09-26 02:30:00,2,8198,64,0.26,2,2,0,2,2967,27951,7281,5580,0,71,21,71,0.00,1.30,0.40,0.10
2013-09-26 02:40:00,2,46459,0,0.00,2,2,0,2,38763,50000,4412,49384,0,0,0,0,0.00,0.00,0.00,0.00
2013-09-26 02:50:00,2,24839,14,0.01,2,2,0,2,1999,50000,17063,18300,0,71,28,0,0.00,0.15,0.05,0.00
2013-09-26 03:00:00,2,26158,15,0.01,2,2,0,2,3400,50000,18956,25769,0,41,17,10,0.00,0.10,0.03,0.00
2013-09-26 03:10:00,2,47210,0,0.00,2,2,0,2,39557,50000,3721,49058,0,0,0,0,0.00,0.00,0.00,0.00
2013-09-26 03:20:00,2,37560,0,0.00,2,2,0,2,9388,50000,13784,42244,0,0,0,0,0.00,0.00,0.00,0.00
2013-09-26 03:30:00,2,30663,15,0.00,2,2,0,2,9574,47093,12574,35646,0,71,24,0,0.00,0.00,0.00,0.00
2013-09-26 03:40:00,2,49586,0,0.00,2,2,0,2,47419,50000,782,49986,0,0,0,0,0.00,0.00,0.00,0.00
2013-09-26 03:50:00,2,49435,0,0.00,2,2,0,2,44352,50000,1694,50000,0,0,0,0,0.00,0.00,0.00,0.00
2013-09-26 04:00:00,2,50000,0,0.00,2,2,0,2,50000,50000,0,50000,0,0,0,0,0.00,0.00,0.00,0.00
2013-09-26 04:10:00,2,47428,0,0.00,2,2,0,2,33791,50000,4858,50000,0,0,0,0,0.00,0.00,0.00,0.00
2013-09-26 04:20:00,2,49749,0,0.00,2,2,0,2,48174,50000,563,50000,0,0,0,0,0.00,0.00,0.00,0.00
2013-09-26 04:30:00,2,43428,0,0.00,2,2,0,2,19048,50000,9792,48993,0,0,0,0,0.00,0.00,0.00,0.00
2013-09-26 04:40:00,2,50000,0,0.00,2,2,0,2,50000,50000,0,50000,0,0,0,0,0.00,0.00,0.00,0.00
2013-09-26 04:50:00,2,49667,0,0.00,2,2,0,2,46671,50000,999,50000,0,0,0,0,0.00,0.00,0.00,0.00
2013-09-26 05:00:00,2,45135,4,0.00,2,2,0,2,5186,50000,13365,50000,0,40,12,0,0.00,0.00,0.00,0.00
2013-09-26 05:10:00,2,21772,40,0.26,2,2,0,2,1984,46309,16977,15348,0,71,33,56,0.00,1.40,0.44,0.00
2013-09-26 05:20:00,2,13744,48,1.14,2,2,0,2,1005,50000,18592,3204,0,71,27,56,0.00,3.00,1.06,1.18
2013-09-26 05:30:00,2,20988,65,0.01,2,2,0,2,6460,49370,14420,16466,0,77,22,71,0.00,0.05,0.02,0.00
2013-09-26 05:40:00,2,24931,43,0.00,2,2,0,2,4678,50000,16684,20016,0,71,35,71,0.00,0.00,0.00,0.00
2013-09-26 05:50:00,2,5596,57,0.77,2,2,0,2,1082,12590,3358,5000,0,71,28,71,0.00,5.45,1.60,0.10
2013-09-26 06:00:00,2,14956,30,0.08,2,2,0,2,2119,33540,11230,11266,0,71,33,10,0.00,0.60,0.18,0.00
2013-09-26 06:10:00,2,23844,21,0.04,2,2,0,2,3115,44022,14648,26020,0,71,33,0,0.00,0.25,0.08,0.00
2013-09-26 06:20:00,2,28455,26,0.01,2,2,0,2,2245,50000,19180,36077,0,71,30,10,0.00,0.10,0.03,0.00
2013-09-26 06:30:00,2,38734,1,0.00,2,2,0,2,16171,50000,12466,42636,0,10,3,0,0.00,0.00,0.00,0.00
2013-09-26 06:40:00,2,32149,0,0.00,2,2,0,2,9720,50000,12182,31938,0,0,0,0,0.00,0.00,0.00,0.00
2013-09-26 06:50:00,2,41887,0,0.00,2,2,0,2,23132,50000,9352,45011,0,0,0,0,0.00,0.00,0.00,0.00
2013-09-26 07:00:00,2,49440,0,0.00,2,2,0,2,47508,50000,977,50000,0,0,0,0,0.00,0.00,0.00,0.00
2013-09-26 07:10:00,2,48640,0,0.00,2,2,0,2,43816,50000,2183,50000,0,0,0,0,0.00,0.00,0.00,0.00
2013-09-26 07:20:00,2,40289,8,0.01,2,2,0,2,3523,50000,17917,49272,0,41,16,0,0.00,0.05,0.02,0.00
2013-09-26 07:30:00,2,21379,42,0.28,2,2,0,2,1473,48677,18633,14154,10,77,29,41,0.00,1.80,0.56,0.00
2013-09-26 07:40:00,2,37723,4,0.00,2,2,0,2,11200,50000,12784,40672,0,10,5,0,0.00,0.00,0.00,0.00
2013-09-26 07:50:00,2,11656,50,1.25,2,2,0,2,888,30812,12026,3506,0,71,33,71,0.00,6.05,1.89,0.10
2013-09-26 08:00:00,2,25751,16,0.09,2,2,0,2,2441,50000,19730,25539,0,41,20,0,0.00,0.35,0.14,0.00
2013-09-26 08:10:00,2,30386,16,0.08,2,2,0,2,2408,50000,14762,33752,10,67,17,10,0.00,0.80,0.24,0.00
2013-09-26 08:20:00,2,32440,0,0.00,2,2,0,2,7372,50000,14497,33425,0,0,0,0,0.00,0.00,0.00,0.00
2013-09-26 08:30:00,2,18763,20,0.01,2,2,0,2,6580,43850,10901,14932,0,41,20,20,0.00,0.05,0.02,0.00
2013-09-26 08:40:00,2,37820,0,0.00,2,2,0,2,8070,50000,14418,44656,0,0,0,0,0.00,0.00,0.00,0.00
2013-09-26 08:50:00,2,28860,16,0.00,2,2,0,2,6159,50000,17039,28520,0,41,20,0,0.00,0.00,0.00,0.00
2013-09-26 09:00:00,2,34703,0,0.00,2,2,0,2,11639,50000,15321,38030,0,0,0,0,0.00,0.00,0.00,0.00
2013-09-26 09:10:00,2,35879,0,0.00,2,2,0,2,10011,50000,14970,42148,0,0,0,0,0.00,0.00,0.00,0.00
2013-09-26 09:20:00,2,39477,0,0.00,2,2,0,2,16969,50000,10594,41221,0,0,0,0,0.00,0.00,0.00,0.00
2013-09-26 09:30:00,2,29220,24,0.01,2,2,0,2,6830,50000,18192,26701,0,77,26,20,0.00,0.05,0.02,0.00
2013-09-26 09:40:00,2,27378,36,0.03,2,2,0,2,5551,50000,17089,27094,0,77,36,36,0.00,0.10,0.04,0.00
2013-09-26 09:50:00,2,15159,75,0.02,2,2,0,2,6241,23674,5835,16138,71,77,3,77,0.00,0.10,0.03,0.00
2013-09-26 10:00:00,2,24816,45,0.00,2,2,0,2,9306,34912,7299,25872,0,77,37,71,0.00,0.00,0.00,0.00
2013-09-26 10:10:00,2,23880,67,0.01,2,2,0,2,7272,36691,10147,25716,0,77,22,74,0.00,0.05,0.02,0.00
2013-09-26 10:20:00,2,29634,59,0.00,2,2,0,2,12075,50000,14633,25502,0,77,30,71,0.00,0.00,0.00,0.00
2013-09-26 10:30:00,2,13746,29,0.06,2,2,0,2,2437,48785,13324,8638,0,77,36,0,0.00,0.35,0.10,0.00
2013-09-26 10:40:00,2,24234,21,0.01,2,2,0,2,8804,49599,13135,19569,0,71,33,0,0.00,0.05,0.02,0.00
2013-09-26 10:50:00,2,25986,36,0.42,2,2,0,2,936,50000,23843,26789,0,77,36,36,0.00,1.80,0.62,0.00
2013-09-26 11:00:00,2,24745,30,0.45,2,2,0,2,906,49284,18745,29748,0,77,37,0,0.00,2.30,0.77,0.00
2013-09-26 11:10:00,2,49270,0,0.00,2,2,0,2,43989,50000,1779,50000,0,0,0,0,0.00,0.00,0.00,0.00
2013-09-26 11:20:00,2,39916,7,0.00,2,2,0,2,10152,50000,14484,48407,0,71,21,0,0.00,0.00,0.00,0.00
2013-09-26 11:30:00,2,34140,74,0.01,2,2,0,2,10261,49946,13106,36670,71,77,3,74,0.00,0.05,0.02,0.00
2013-09-26 11:40:00,2,38424,53,0.00,2,2,0,2,14951,50000,10932,39524,0,77,35,74,0.00,0.00,0.00,0.00
2013-09-26 11:50:00,2,48400,0,0.00,2,2,0,2,33997,50000,4801,50000,0,0,0,0,0.00,0.00,0.00,0.00
2013-09-26 12:00:00,2,5937,17,0.33,2,2,0,2,3379,13676,3257,4294,0,41,19,5,0.00,1.40,0.51,0.00
2013-09-26 12:10:00,2,8507,14,0.00,2,2,0,2,3485,20969,5936,5789,10,54,13,10,0.00,0.00,0.00,0.00
2013-09-26 12:20:00,2,12477,26,0.01,2,2,0,2,3348,27049,8863,8100,10,41,16,26,0.00,0.15,0.05,0.00
2013-09-26 12:30:00,2,3797,66,0.10,2,2,0,2,2374,6011,1000,3576,41,77,16,77,0.00,0.25,0.09,0.05
2013-09-26 12:40:00,2,4887,76,0.30,2,2,0,2,2597,7797,1924,5094,71,77,2,77,0.00,1.15,0.38,0.08
2013-09-26 12:50:00,2,6593,76,0.18,2,2,0,2,3355,12120,2780,5324,71,77,2,77,0.00,0.35,0.15,0.20
2013-09-26 13:00:00,2,13062,70,0.15,2,2,0,2,5737,32873,9694,8958,10,77,20,77,0.00,0.55,0.16,0.12
2013-09-26 13:10:00,2,38470,9,0.01,2,2,0,2,3450,50000,16886,44942,0,71,21,0,0.00,0.05,0.02,0.00
2013-09-26 13:20:00,2,2809,73,0.61,2,2,0,2,748,6910,1660,2370,71,77,3,71,0.00,2.50,0.75,0.33
2013-09-26 13:30:00,2,4180,74,0.47,2,2,0,2,2261,6922,1556,4422,71,77,3,74,0.00,1.30,0.41,0.35
2013-09-26 13:40:00,2,7674,60,0.12,2,2,0,2,2448,25310,6872,4786,0,77,28,71,0.00,0.55,0.16,0.10
2013-09-26 13:50:00,2,10948,72,0.07,2,2,0,2,4984,16488,3408,12050,41,77,11,77,0.00,0.45,0.13,0.00
2013-09-26 14:00:00,2,8813,51,0.33,2,2,0,2,3445,17779,4046,7066,41,77,14,41,0.00,1.30,0.38,0.28
2013-09-26 14:10:00,2,14909,76,0.03,2,2,0,2,6529,28489,7033,12748,71,77,2,77,0.00,0.15,0.05,0.00
2013-09-26 14:20:00,2,17298,50,0.15,2,2,0,2,3090,31176,9254,18664,0,77,29,56,0.00,0.80,0.27,0.00
2013-09-26 14:30:00,2,6420,73,0.58,2,2,0,2,2312,10878,2660,6107,41,77,11,77,0.20,1.35,0.35,0.50
2013-09-26 14:40:00,2,36490,27,0.01,2,2,0,2,13152,50000,13930,42567,0,54,27,27,0.00,0.05,0.02,0.00
2013-09-26 14:50:00,2,15894,16,0.04,2,2,0,2,9650,25054,4598,14904,0,41,20,0,0.00,0.20,0.06,0.00
2013-09-26 15:00:00,2,9747,44,0.14,2,2,0,2,4167,17644,4883,8062,0,77,27,41,0.00,0.50,0.18,0.05
2013-09-26 15:10:00,2,21058,4,0.07,2,2,0,2,8718,37171,9377,20383,0,41,12,0,0.00,0.70,0.21,0.00
2013-09-26 15:20:00,2,32136,0,0.00,2,2,0,2,9534,43917,11657,34877,0,0,0,0,0.00,0.00,0.00,0.00
2013-09-26 15:30:00,2,22945,28,0.01,2,2,0,2,9058,50000,14011,18194,0,71,35,0,0.00,0.05,0.02,0.00
2013-09-26 15:40:00,2,15861,76,0.07,2,2,0,2,6332,28377,8415,11004,71,77,2,77,0.00,0.20,0.06,0.05
2013-09-26 15:50:00,2,32025,60,0.01,2,2,0,2,9133,50000,13866,29370,0,77,30,74,0.00,0.05,0.02,0.00
2013-09-26 16:00:00,2,19543,53,0.02,2,2,0,2,8388,44138,10257,15864,0,77,35,74,0.00,0.15,0.05,0.00
2013-09-26 16:10:00,2,22632,71,0.01,2,2,0,2,9409,44559,12232,21746,41,77,10,74,0.00,0.05,0.02,0.00
2013-09-26 16:20:00,2,22015,58,0.02,2,2,0,2,17252,27148,2929,21924,41,77,17,56,0.00,0.05,0.02,0.00
2013-09-26 16:30:00,2,32378,46,0.00,2,2,0,2,18057,50000,12338,27944,0,77,38,77,0.00,0.00,0.00,0.00
2013-09-26 16:40:00,2,26310,0,0.00,2,2,0,2,13418,41220,8867,25631,0,0,0,0,0.00,0.00,0.00,0.00
2013-09-26 16:50:00,2,38186,0,0.00,2,2,0,2,18696,50000,10208,39866,0,0,0,0,0.00,0.00,0.00,0.00
2013-09-26 17:00:00,2,41575,0,0.00,2,2,0,2,25439,50000,7058,43134,0,0,0,0,0.00,0.00,0.00,0.00
2013-09-26 17:10:00,2,33003,0,0.00,2,2,0,2,18700,50000,11137,31276,0,0,0,0,0.00,0.00,0.00,0.00
2013-09-26 17:20:00,2,39591,0,0.00,2,2,0,2,24098,50000,10039,41914,0,0,0,0,0.00,0.00,0.00,0.00
2013-09-26 17:30:00,2,34271,0,0.00,2,2,0,2,17740,50000,11505,33261,0,0,0,0,0.00,0.00,0.00,0.00
2013-09-26 17:40:00,2,20255,61,0.04,2,2,0,2,10328,29063,5823,20100,41,77,17,71,0.00,0.20,0.07,0.00
2013-09-26 17:50:00,2,28973,65,0.03,2,2,0,2,19547,46055,8315,27334,41,77,16,74,0.00,0.05,0.03,0.03
2013-09-26 18:00:00,2,40873,31,0.01,2,2,0,2,27158,50000,8669,44454,0,77,38,0,0.00,0.05,0.02,0.00
2013-09-26 18:10:00,2,29482,73,0.01,2,2,0,2,21622,40338,4916,29194,71,77,3,71,0.00,0.05,0.02,0.00
2013-09-26 18:20:00,2,36370,76,0.01,2,2,0,2,18809,49438,11243,40762,71,77,2,77,0.00,0.05,0.02,0.00
2013-09-26 18:30:00,2,34655,75,0.00,2,2,0,2,19573,46920,10114,38942,71,77,3,77,0.00,0.00,0.00,0.00
2013-09-26 18:40:00,2,31179,75,0.01,2,2,0,2,18748,46786,10027,26668,71,77,3,77,0.00,0.05,0.02,0.00
2013-09-26 18:50:00,2,19293,69,0.03,2,2,0,2,12380,31595,5783,17518,41,77,14,77,0.00,0.05,0.03,0.03
2013-09-26 19:00:00,2,25494,45,0.02,2,2,0,2,8756,38000,9545,27298,0,77,37,71,0.00,0.10,0.03,0.00
2013-09-26 19:10:00,2,23899,61,0.07,2,2,0,2,8000,41006,11114,27452,41,77,17,71,0.00,0.25,0.07,0.05
2013-09-26 19:20:00,2,36626,75,0.00,2,2,0,2,18778,50000,11311,37342,71,77,3,77,0.00,0.00,0.00,0.00
2013-09-26 19:30:00,2,27687,72,0.03,2,2,0,2,10418,50000,14841,23858,41,77,11,77,0.00,0.10,0.04,0.00
2013-09-26 19:40:00,2,27013,8,0.00,2,2,0,2,9505,47788,12262,26458,0,41,16,0,0.00,0.00,0.00,0.00
2013-09-26 19:50:00,2,39189,0,0.00,2,2,0,2,8900,50000,13500,45055,0,0,0,0,0.00,0.00,0.00,0.00
2013-09-26 20:00:00,2,23794,44,0.04,2,2,0,2,4753,45600,12211,22074,0,77,36,71,0.00,0.40,0.12,0.00
2013-09-26 20:10:00,2,9416,61,0.20,2,2,0,2,6576,12884,2219,9206,54,77,11,54,0.05,0.65,0.18,0.12
2013-09-26 20:20:00,2,33392,28,0.01,2,2,0,2,10402,50000,14770,31962,0,54,24,41,0.00,0.05,0.02,0.00
2013-09-26 20:30:00,2,46000,0,0.00,2,2,0,2,28433,50000,7226,50000,0,0,0,0,0.00,0.00,0.00,0.00
2013-09-26 20:40:00,2,48058,0,0.00,2,2,0,2,30582,50000,5825,50000,0,0,0,0,0.00,0.00,0.00,0.00
2013-09-26 20:50:00,2,31726,0,0.00,2,2,0,2,9371,50000,16197,33597,0,0,0,0,0.00,0.00,0.00,0.00
2013-09-26 21:00:00,2,50000,0,0.00,2,2,0,2,50000,50000,0,50000,0,0,0,0,0.00,0.00,0.00,0.00
2013-09-26 21:10:00,2,50000,0,0.00,2,2,0,2,50000,50000,0,50000,0,0,0,0,0.00,0.00,0.00,0.00
2013-09-26 21:20:00,2,50000,0,0.00,2,2,0,2,50000,50000,0,50000,0,0,0,0,0.00,0.00,0.00,0.00
2013-09-26 21:30:00,2,50000,0,0.00,2,2,0,2,50000,50000,0,50000,0,0,0,0,0.00,0.00,0.00,0.00
2013-09-26 21:40:00,2,49881,0,0.00,2,2,0,2,48809,50000,357,50000,0,0,0,0,0.00,0.00,0.00,0.00
2013-09-26 21:50:00,2,50000,0,0.00,2,2,0,2,50000,50000,0,50000,0,0,0,0,0.00,0.00,0.00,0.00
2013-09-26 22:00:00,2,50000,0,0.00,2,2,0,2,50000,50000,0,50000,0,0,0,0,0.00,0.00,0.00,0.00
2013-09-26 22:10:00,2,35989,0,0.00,2,2,0,2,7219,50000,16580,45692,0,0,0,0,0.00,0.00,0.00,0.00
2013-09-26 22:20:00,2,50000,0,0.00,2,2,0,2,50000,50000,0,50000,0,0,0,0,0.00,0.00,0.00,0.00
2013-09-26 22:30:00,2,49966,0,0.00,2,2,0,2,49663,50000,101,50000,0,0,0,0,0.00,0.00,0.00,0.00
2013-09-26 22:40:00,2,49892,0,0.00,2,2,0,2,48917,50000,325,50000,0,0,0,0,0.00,0.00,0.00,0.00
2013-09-26 22:50:00,2,49851,0,0.00,2,2,0,2,48514,50000,446,50000,0,0,0,0,0.00,0.00,0.00,0.00
2013-09-26 23:00:00,2,49886,0,0.00,2,2,0,2,49243,50000,243,50000,0,0,0,0,0.00,0.00,0.00,0.00
2013-09-26 23:10:00,2,40088,0,0.00,2,2,0,2,21722,50000,9917,42724,0,0,0,0,0.00,0.00,0.00,0.00
2013-09-26 23:20:00,2,39923,0,0.00,2,2,0,2,18677,50000,9735,42730,0,0,0,0,0.00,0.00,0.00,0.00
2013-09-26 23:30:00,2,49992,0,0.00,2,2,0,2,49924,50000,23,50000,0,0,0,0,0.00,0.00,0.00,0.00
2013-09-26 23:40:00,2,49734,0,0.00,2,2,0,2,48500,50000,480,50000,0,0,0,0,0.00,0.00,0.00,0.00
2013-09-26 23:50:00,2,50000,0,0.00,2,2,0,2,50000,50000,0,50000,0,0,0,0,0.00,0.00,0.00,0.00
